Location: Amsterdam
(30.7274°N, 84.4357°W)
Time: 10:08:39
(UTC+00:00)

Vanguard 3 - All Passes

Search period start: 19 February 2026 00:00
Search period end: 01 March 2026 00:00
Orbit: 508 x 3205 km, 33.3° (Epoch: 19 February)

Date Brightness Start Highest point End Pass type
(mag) Time Alt. Az. Time Alt. Az. Time Alt. Az.
19 Feb - 00:14:44 10° W 00:21:43 68° N 00:26:03 10° E visible
19 Feb - 02:28:11 10° W 02:32:33 49° SSW 02:36:06 10° SE visible
19 Feb - 16:14:51 10° SSE 16:19:13 11° SE 16:23:16 10° SE daylight
19 Feb - 18:19:41 10° SSW 18:33:57 34° SSE 18:43:26 10° E daylight
19 Feb - 20:33:46 10° WSW 20:47:31 70° SSE 20:55:06 10° ENE daylight
19 Feb - 22:50:17 10° W 22:59:53 73° N 23:05:17 10° ENE daylight
20 Feb - 01:05:21 10° WNW 01:11:24 87° NNE 01:15:24 10° ESE visible
20 Feb - 03:18:44 10° W 03:21:39 19° SSW 03:24:22 10° SSE visible
20 Feb - 16:57:34 10° S 17:10:07 23° SE 17:19:51 10° E daylight
20 Feb - 19:08:59 10° SW 19:24:29 52° SSE 19:33:45 10° E daylight
20 Feb - 21:25:00 10° WSW 21:37:38 89° NNW 21:44:28 10° ENE daylight
20 Feb - 23:41:32 10° W 23:49:47 71° N 23:54:37 10° E visible
21 Feb - 01:55:45 10° W 02:00:47 49° SSW 02:04:27 10° SE visible
21 Feb - 15:39:13 10° SSE 15:45:59 13° SE 15:52:09 10° ESE daylight
21 Feb - 17:45:10 10° SSW 18:00:51 38° SSE 18:11:33 10° E daylight
21 Feb - 19:59:30 10° WSW 20:14:51 73° SSE 20:23:26 10° ENE daylight
21 Feb - 22:16:35 10° W 22:27:42 75° N 22:33:48 10° E daylight
22 Feb - 00:32:24 10° WNW 00:39:33 90° NE 00:43:56 10° ESE visible
22 Feb - 02:46:31 10° W 02:49:47 20° SW 02:52:35 10° SSE visible
22 Feb - 16:23:03 10° S 16:36:48 25° SE 16:47:46 10° E daylight
22 Feb - 18:34:33 10° SW 18:51:26 55° SSE 19:01:53 10° E daylight
22 Feb - 20:50:52 10° WSW 21:05:07 88° NNW 21:12:52 10° ENE daylight
22 Feb - 23:08:04 10° W 23:17:44 74° N 23:23:10 10° E daylight
23 Feb - 01:23:02 10° W 01:28:56 50° SSW 01:32:54 10° SE visible
23 Feb - 15:04:23 10° SSE 15:12:36 14° SE 15:20:11 10° ESE daylight
23 Feb - 17:10:44 10° SSW 17:27:30 40° SSE 17:39:27 10° E daylight
23 Feb - 19:25:08 10° WSW 19:41:57 75° SSE 19:51:38 10° ENE daylight
23 Feb - 21:42:38 10° W 21:55:22 76° N 22:02:16 10° E daylight
23 Feb - 23:59:10 10° WNW 00:07:35 89° SSW 00:12:27 10° ESE visible
24 Feb - 02:14:01 10° W 02:17:54 21° SW 02:20:58 10° SSE visible
24 Feb - 15:48:43 10° SSW 16:03:18 27° SE 16:15:26 10° E daylight
24 Feb - 18:00:09 10° SW 18:18:10 58° SSE 18:29:52 10° ENE daylight
24 Feb - 20:16:36 10° WSW 20:32:23 87° NNW 20:41:10 10° ENE daylight
24 Feb - 22:34:20 10° W 22:45:32 76° N 22:51:39 10° E daylight
25 Feb - 00:50:03 10° WNW 00:57:01 52° SSW 01:01:23 10° SE visible
25 Feb - 14:30:02 10° SSE 14:39:06 15° SE 14:47:41 10° ESE daylight
25 Feb - 16:36:28 10° SSW 16:53:57 42° SSE 17:07:10 10° E daylight
25 Feb - 18:50:45 10° WSW 19:08:49 77° SSE 19:19:43 10° ENE daylight
25 Feb - 21:08:29 10° W 21:22:49 78° N 21:30:38 10° E daylight
25 Feb - 23:25:41 10° WNW 23:35:30 87° SSW 23:40:57 10° ESE daylight
26 Feb - 01:41:13 10° W 01:45:56 23° SW 01:49:25 10° SSE visible
26 Feb - 15:14:39 10° SSW 15:29:38 28° SE 15:42:49 10° E daylight
26 Feb - 17:25:51 10° SW 17:44:39 60° SSE 17:57:40 10° ENE daylight
26 Feb - 19:42:14 10° WSW 19:59:27 87° NNW 20:09:21 10° ENE daylight
26 Feb - 22:00:22 10° W 22:13:10 78° N 22:20:06 10° E daylight
27 Feb - 00:16:46 10° WNW 00:25:00 54° SSW 00:29:52 10° SE visible
27 Feb - 13:56:06 10° SSE 14:05:30 16° SE 14:14:45 10° ESE daylight
27 Feb - 16:02:24 10° SSW 16:20:12 44° SE 16:34:39 10° E daylight
27 Feb - 18:16:24 10° WSW 18:35:25 79° SSE 18:47:37 10° ENE daylight
27 Feb - 20:34:12 10° W 20:50:05 79° N 20:58:56 10° E daylight
27 Feb - 22:51:54 10° WNW 23:03:16 86° SSW 23:09:26 10° ESE daylight
28 Feb - 01:08:08 10° W 01:13:55 25° SW 01:17:54 10° SSE visible
28 Feb - 14:40:50 10° SSW 14:55:51 29° SE 15:09:55 10° E daylight
28 Feb - 16:51:42 10° SW 17:10:55 62° SSE 17:25:16 10° ENE daylight
28 Feb - 19:07:52 10° WSW 19:26:16 87° NNW 19:37:23 10° ENE daylight
28 Feb - 21:26:11 10° W 21:40:37 80° N 21:48:28 10° E daylight
28 Feb - 23:43:12 10° WNW 23:52:51 56° SSW 23:58:21 10° SE daylight
